Content
SEND FEEDBACK

Daily
Averages
Monthly
Summary
United States of America

SOUTH LAKE TAHOE - AIRPORT, CALIFORNIA


Home > North America > United States > California
Elevation: 1905 meters     Latitude: 38 54N     Longitude: 120 00W

WEATHER
 
SELECT A DAY
Number of Records: 177,905;   Date Range: 1/1/95 - 11/26/14
 
SHARE

PRINT THIS DATA

[ ← Previous Day ]
WEATHER ALMANAC - 1 SEPTEMBER, 2013
[ Next Day → ]
[ °F ]   °C
Weather ElementAverageHighLow
Temperature18.6 °C25 °C (3:53 pm)12.2 °C (6:53 am)
Dewpoint5.4 °C8.3 °C (9:53 pm)1.7 °C (5:53 am)
Humidity43.3 %58 % (10:53 pm)29 % (12:53 pm)
Barometer1015.9 hPa1020.3 hPa (4:26 pm)1013.9 hPa (3:53 pm)
Wind Speed5.8 km/h24.1 km/h (3:53 pm)
Wind Gust35.2 km/h (3:53 pm)
Weather ElementAverage
Visibility14 km
Wind DirectionENE (78.8 °)

Weather ElementTotal
Precipitation---
Cooling Degree Days0.3 (Base 18.3)
Growing Degree Days8.6 (Base 10)
Averaged from 24 records on 1 September, 2013
WEATHER CONDITIONS BREAKOUT
WIND DIRECTION BREAKOUT
WEATHER BY HOUR - 1 SEPTEMBER, 2013
[ °F ]   °C
Local TimeTemperatureDewpointHumidityBarometerVisibilityWind DirectionWind SpeedGust SpeedPrecipitationEventsConditions
1:53 AM13.3 °C3.9 °C53 %1016.3 hPa16.1 kmCalmScattered Clouds
2:53 AM12.8 °C3.9 °C55 %1015.9 hPa16.1 kmCalmMostly Cloudy
3:53 AM13.9 °C2.8 °C47 %1015.6 hPa16.1 kmCalmMostly Cloudy
4:53 AM13.3 °C3.3 °C51 %1015.6 hPa16.1 kmCalmPartly Cloudy
5:53 AM12.8 °C1.7 °C47 %1015.9 hPa16.1 kmCalmMostly Cloudy
6:53 AM12.2 °C1.7 °C49 %1016.6 hPa16.1 kmCalmMostly Cloudy
7:53 AM13.3 °C2.8 °C49 %1016.6 hPa16.1 kmCalmOvercast
8:53 AM16.1 °C3.9 °C44 %1016.3 hPa16.1 kmCalmOvercast
9:53 AM20.6 °C5 °C36 %1016.3 hPa16.1 kmNE (50°)5.6 km/hOvercast
10:53 AM21.1 °C6.7 °C39 %1016.3 hPa16.1 kmNNE (20°)9.3 km/hOvercast
11:53 AM21.7 °C5 °C34 %1016.3 hPa16.1 kmCalmOvercast
12:53 PM23.3 °C4.4 °C29 %1015.6 hPa16.1 kmVariable9.3 km/hOvercast
1:53 PM24.4 °C5 °C29 %1014.9 hPa9.7 kmVariable5.6 km/hHaze
2:53 PM22.8 °C5.6 °C33 %1014.9 hPa8 kmNorth (360°)5.6 km/hHaze
3:53 PM25 °C7.2 °C32 %1013.9 hPa6.4 kmSSW (200°)24.1 km/h35.2 km/hHaze
4:26 PM24 °C7 °C34 %1020.3 hPa8 kmVariable9.3 km/hHaze
4:53 PM23.9 °C6.7 °C33 %1014.2 hPa11.3 kmVariable9.3 km/h27.8 km/hClear
5:53 PM22.8 °C6.7 °C35 %1014.6 hPa12.9 kmSSW (210°)13 km/hScattered Clouds
6:53 PM21.7 °C7.2 °C39 %1014.9 hPa14.5 kmSSW (210°)11.1 km/hClear
7:53 PM19.4 °C7.8 °C47 %1015.6 hPa16.1 kmSouth (190°)14.8 km/hClear
8:53 PM17.8 °C7.8 °C52 %1015.9 hPa16.1 kmSW (220°)7.4 km/hClear
9:53 PM17.2 °C8.3 °C56 %1015.6 hPa16.1 kmSW (220°)9.3 km/hPartly Cloudy
10:53 PM16.7 °C8.3 °C58 %1015.6 hPa16.1 kmSSW (210°)5.6 km/hClear
11:53 PM16.7 °C8.3 °C58 %1014.9 hPa8 kmCalmHaze
Hourly data recorded from KTVL, located 0 kilometers away from South Lake Tahoe - Airport, California







STORIES FROM OUR PARTNERS